Lid_Strength_Index
4 6 9 7 5 6 6 7 8 8 7 7 8 9 8 6 6 6 6 5 5 4 3 2 2 1 1 0 1 1 1 0 -1 -0 0 -0 0 -1 -1 -2 -2 -2 -2 -2
5 7 5 5 5 6 7 8 11 8 7 7 8 9 8 7 6 5 5 5 5 4 3 3 2 1 1 1 1 0 1 -0 -1 -0 -1 -0 -0 -1 -1 -1 -2 -2 -2 -2
6 6 5 5 6 7 7 9 8 8 8 7 8 10 9 7 6 5 4 4 4 4 4 3 3 2 2 2 1 1 0 -0 -1 -1 -1 -1 -1 -1 -0 -0 -0 -1 -2 -2
6 5 6 6 7 7 9 7 7 7 9 12 10 13 10 9 7 6 5 5 4 4 3 3 2 3 2 1 0 0 -0 -0 -1 -1 -1 -0 1 2 0 0 -1 -1 -2 -2
7 6 6 7 7 6 7 6 7 7 8 9 10 13 11 8 9 8 6 5 4 4 4 3 3 2 1 1 1 0 0 -0 -0 -1 -1 0 -0 -0 -0 -0 -1 -1 -2 -2
5 4 5 5 6 6 6 7 7 7 9 13 11 13 13 11 9 7 6 5 4 3 3 3 2 2 2 1 1 1 1 0 -0 -0 -1 -0 -0 0 1 0 1 0 -0 -0
6 6 5 5 7 6 7 8 12 12 15 15 10 11 11 8 7 7 6 5 4 3 3 3 3 3 2 2 1 1 1 1 0 0 -0 -0 -1 -0 0 0 0 0 1 0
9 12 7 5 7 8 8 8 11 15 14 12 10 13 11 6 6 5 5 4 3 3 3 3 2 2 2 1 1 1 1 2 0 0 -0 -1 -1 0 0 -0 -0 -0 0 -0
9 11 6 6 5 6 7 9 7 10 9 11 13 11 8 6 6 5 5 5 4 4 3 3 2 2 2 1 1 1 1 0 0 0 0 -0 -0 -0 -0 -1 -1 -0 -0 -0
7 10 7 6 5 5 7 6 9 9 15 15 13 12 13 9 8 7 6 5 5 4 3 3 3 2 2 1 1 1 0 1 1 0 1 1 0 0 -0 -1 -1 -1 -1 -1
6 8 8 7 7 8 7 8 8 9 10 13 13 15 8 8 7 7 6 5 4 4 3 2 2 1 1 0 1 1 0 0 1 1 0 -0 -0 0 -0 -0 -0 -0 -1 -1
6 7 9 8 6 5 6 8 8 11 13 10 11 13 6 6 6 5 5 5 4 3 2 2 2 1 1 1 1 1 0 0 0 0 1 0 -0 -0 0 0 -0 -1 -0 -1
6 8 11 10 8 7 8 7 7 8 8 11 13 13 6 6 6 6 6 5 4 3 2 2 2 2 1 1 1 1 0 0 0 1 1 1 0 -0 0 1 -0 0 -0 -0
5 8 9 11 10 8 9 8 7 8 11 11 10 11 8 8 7 6 6 4 3 3 2 2 2 2 1 1 1 1 0 0 0 0 0 1 1 0 0 1 0 -0 -0 -1
6 10 8 8 8 8 8 9 8 9 9 11 10 9 8 7 6 5 4 3 3 3 3 2 2 2 1 1 1 1 1 0 0 0 0 1 1 -0 0 0 0 0 -0 -0
6 9 8 10 8 8 9 8 8 9 8 8 8 9 6 5 5 5 4 4 4 3 3 2 2 2 2 1 1 1 1 1 1 1 1 1 1 0 1 1 0 0 0 -0
8 8 9 11 9 9 11 9 8 8 7 8 10 8 6 6 5 5 4 4 4 3 3 2 2 2 1 2 1 1 1 1 1 1 1 0 1 1 1 1 0 1 1 -1
8 8 8 11 10 15 10 6 7 8 7 7 7 6 5 5 4 4 3 3 3 3 3 2 2 2 1 1 2 1 1 1 1 1 1 1 1 1 1 1 0 0 -0 1
6 7 10 12 12 9 9 8 8 8 8 6 7 6 5 4 4 4 3 2 2 2 2 2 1 1 1 1 1 1 1 1 1 2 1 1 1 1 1 1 1 1 0 1
6 6 9 10 13 14 10 7 5 6 11 6 6 5 5 5 7 5 3 2 2 2 1 1 1 1 1 1 1 1 1 1 1 1 1 1 0 0 2 1 1 0 0 1
10 10 11 11 12 10 7 6 5 12 11 5 5 4 4 5 4 3 2 2 2 1 1 1 2 2 2 1 1 2 1 2 1 1 1 0 0 0 -0 0 0 1 1 0
10 11 10 10 11 13 5 6 9 7 4 4 4 4 4 3 3 3 2 2 2 2 2 2 3 2 2 2 2 2 2 1 0 0 0 1 0 0 1 0 0 1 1 1
10 9 11 10 10 6 4 5 4 4 4 4 3 3 3 3 3 3 3 2 2 2 3 3 3 3 2 2 2 2 1 1 0 0 0 0 0 0 0 0 1 1 1 2
7 6 8 8 7 6 4 3 3 3 3 3 2 3 3 3 3 2 3 2 2 3 3 3 3 3 4 2 2 1 1 0 1 1 1 0 0 1 0 1 0 1 1 2
7 6 7 8 6 5 4 4 3 3 3 3 2 2 3 3 3 3 2 2 3 3 3 3 3 4 4 2 2 2 1 0 1 1 1 1 1 1 1 0 1 0 -0 3
5 7 8 8 5 5 4 3 3 3 3 3 3 3 2 3 3 2 2 2 3 3 3 3 3 4 3 3 3 2 1 0 0 2 1 1 1 1 1 1 1 4 6 6